User: anonymous   Login
Location: Unspecified
(0.0000°N, 0.0000°E)
Time: 02:12:45
(UTC+00:00)
Language:

STARLINK-30271 - Orbit

View from above orbital plane
View from above orbital plane
View from above satellite
View from above satellite

Ground track
Ground track

The orbit is defined by the following mean orbital elements,

1 57669U          26145.55831867 +.00000000 +00000-0 +26431-4 0 00007
2 57669  53.1596 209.6783 0001134  94.0365 266.0766 15.31700954    03
Epoch (UTC): 25 May 2026 13:23:58
Eccentricity: 0.0001134
inclination: 53.1596°
perigee height: 470 km
apogee height: 472 km
right ascension of ascending node: 209.6783°
argument of perigee: 94.0365°
revolutions per day: 15.31700954
mean anomaly at epoch: 266.0766°

The dashed part of the orbit path shows where the satellite is in the earth's shadow,  

DLR